Regional Weather Roundup
Issued by NWS

Home | Current Version | Previous Version | Graphics & Text | Print | Product List | Glossary On
Versions: 1 2 3 4 5 6 7 8 9 10 11 12 13 14 15 16 17 18 19 20 21 22 23 24 25 26 27 28 29 30 31 32 33 34 35 36 37 38 39 40 41 42 43 44 45 46 47 48 49 50
000
ASUS45 KABQ 082010
RWRNM
NEW MEXICO REGIONAL WEATHER ROUNDUP
NATIONAL WEATHER SERVICE ALBUQUERQUE NM
100 PM MST THU DEC 08 2016

NOTE: "FAIR" MEANS FEW OR NO CLOUDS BELOW 12,000 FEET AGL WITH NO
       SIGNIFICANT WEATHER OR OBSTRUCTIONS TO VISION.

      THIS PRODUCT IS RELEASED AS TWO VERSIONS.  ONE VERSION NEAR
      THE TOP OF THE HOUR CONTAINING PRELIMINARY DATA FROM ALBUQUERQUE
      AND OTHER STATIONS.  A FINAL VERSION WITH ADDITIONAL DATA IS
      ISSUED ABOUT 10 MINUTES AFTER THE HOUR.

NMZ501-503-504-510>518-082100-
NORTHWEST PLATEAU/NORTHCENTRAL MOUNTAINS

CITY           SKY/WX    TMP DP  RH WIND       PRES   REMARKS
FARMINGTON     PTSUNNY   37   7  28 E3        30.29F
SANTA FE       FAIR      28  13  53 S6        30.32F WCI  22
TAOS           FAIR      27   9  46 S6        30.30F WCI  20

$$
NMZ402-403-502-505>509-082100-
WESTCENTRAL MOUNTAINS/SOUTHWEST MOUNTAINS

CITY           SKY/WX    TMP DP  RH WIND       PRES   REMARKS
GALLUP         FAIR      43  22  43 VRB5      30.26F
GRANTS         FAIR      38  17  41 SE12G18   30.29F WCI  31

$$
NMZ407-409-411-412-082100-
SOUTHERN DESERTS

CITY           SKY/WX    TMP DP  RH WIND       PRES   REMARKS
DEMING         FAIR      47  29  49 E13       30.32F
HOLLOMAN AFB   CLOUDY    41  24  51 SE5       30.41F
T OR C         FAIR      41  21  44 S6        30.32F

$$
NMZ519>523-082100-
CENTRAL VALLEYS/CENTRAL HIGHLANDS

CITY           SKY/WX    TMP DP  RH WIND       PRES   REMARKS
ALBUQUERQUE    FAIR      34  14  43 NW8       30.35F WCI  27
DOUBLE EAGLE   MOSUNNY   32  14  47 CALM      30.35F
CLINES CORNERS CLOUDY    17  15  92 S6        30.32F WCI   9
BELEN          FAIR      36  16  44 CALM      30.36F
SOCORRO        NOT AVBL

$$
NMZ524>526-539-540-082100-
SOUTHCENTRAL MOUNTAINS

CITY           SKY/WX    TMP DP  RH WIND       PRES   REMARKS
RUIDOSO        NOT AVBL

$$
NMZ527>531-082100-
NORTHEAST HIGHLANDS/NORTHEAST PLAINS

CITY           SKY/WX    TMP DP  RH WIND       PRES   REMARKS
LAS VEGAS      CLOUDY    19  12  74 S20       30.27F WCI   3
RATON          CLOUDY    18  10  71 S10       30.30F WCI   6
CLAYTON        CLOUDY    21  12  68 S10       30.41F WCI  10

$$
NMZ532>537-082100-
EASTCENTRAL PLAINS

CITY           SKY/WX    TMP DP  RH WIND       PRES   REMARKS
TUCUMCARI      CLOUDY    22  11  62 E5        30.50F WCI  16
CANNON AFB     MIX PCPN  23  12  63 S7        30.48F WCI  15
CLOVIS AIRPORT CLOUDY    21   9  58 E7        30.48F WCI  13

$$
NMZ028-029-538-082100-
SOUTHEAST PLAINS

CITY           SKY/WX    TMP DP  RH WIND       PRES   REMARKS
ROSWELL        CLOUDY    30  20  66 SE5       30.49F WCI  25
ARTESIA        CLOUDY    30  21  69 SE6       30.52S WCI  24
CARLSBAD       NOT AVBL


$$




USA.gov is the U.S. government's official web portal to all federal, state and local government web resources and services.